Torna al catalogo

BREEZE-M DEB

LostHEO
NORAD 48538·DEBRIS·🇷🇺 Russia

Lanciato Mar 14, 2008 da Baikonur Cosmodrome

Loading…

Prossimi Passaggi (prossime 24 ore)

TLE

ObsoletoSource: Space-Track

Epoca: Feb 7, 2023, 04:37 UTC

1 48538U 08011ED  23038.19240736  .00000299  00000-0  17459-2 0  9994
2 48538  50.2708  11.4951 6533454 208.0839  91.4430  3.10208391984956

Traccia BREEZE-M DEB in tempo reale con AllMySat

Download on the App Store